sat.trackr.live / text

‹ back to catalog

STARLINK-1448

NORAD 45665 · 2020-035J

PAYLOAD ACTIVE UNKNOWN

§ Identity

Operator
Country
US
Launch date
2020-06-04
Launch site
AFETR
Launch vehicle
Mass (kg)
RCS (m²)

Purposes: comms

External: N2YO · Heavens-Above · Gunter

§ Orbital elements

Epoch: 2026-09-15T00:00:02.000160Z

Period
90.44 min
Inclination
53.0326°
Eccentricity
0.0005955
Mean motion
15.92252826 rev/d
Perigee alt
292.0 km
Apogee alt
300.0 km
Semi-major
6,674.1 km
B*
5.5789e-4
RAAN
195.0787°
Arg perigee
84.6868°
Mean anomaly
94.0612°
Rev number
604

§ Raw data

STARLINK-14481 45665U 20035J   26258.00002315  .00189093  24505-4  55789-3 0  99972 45665  53.0326 195.0787 0005955  84.6868  94.0612 15.92252826  6042

JSON: /api/v1/satellites/45665 · /tle

For live sub-satellite position, see the globe view (requires WebGL).

§ Visibility from observer

Set your observer location to see the next 7 days of passes ≥ 10°. The values pass through the URL so the page stays shareable.

No JS? Fill the form by hand. The geolocation button needs JavaScript.